,

(GMT )
Prerov

Weather History for LKPO - March, 2012

Change the Weather History Date:

Sunday, March 18, 2012

  Actual Average Record
Temperature  
Mean Temperature 48 °F -  
Max Temperature 66 °F - - ()
Min Temperature 30 °F - - ()
Degree Days  
Heating Degree Days 17    
Moisture  
Dew Point 33 °F    
Average Humidity 60    
Maximum Humidity 93    
Minimum Humidity 28    
Precipitation  
Precipitation 0.00 in - - ()
Sea Level Pressure  
Sea Level Pressure 30.00 in    
Wind  
Wind Speed 3 mph ()    
Max Wind Speed 14 mph    
Max Gust Speed -    
Visibility 3.2 miles    
Events      
T = Trace of Precipitation, MM = Missing Value Source: Averaged Metar Reports

Daily Weather History Graph

Daily Weather History Graph

Search for Another Location

Airport or City:

Trip Planner

Search our weather history database for the weather conditions in past years. The results will help you decide how hot, cold, wet, or windy it might be!

Date:

Astronomy

Mar. 18, 2012 Rise Set
Actual Time 5:56 AM CET 6:00 PM CET
Civil Twilight 5:25 AM CET 6:32 PM CET
Nautical Twilight 4:47 AM CET 7:09 PM CET
Astronomical Twilight 4:09 AM CET 7:48 PM CET
Moon 3:46 AM CET (3/18) 1:50 PM CET (3/18)
Length of Visible Light 13h 07m
Length of Day
12h 03m
Waning Crescent, 17% of the Moon is Illuminated
Mar 18
Waning Crescent
Mar 22
New
Mar 30
First Quarter
Apr 6
Full
Apr 13
Last Quarter

Hourly Weather History & Observations

Time (CET) Temp. Windchill Dew Point Humidity Pressure Visibility Wind Dir Wind Speed Gust Speed Precip Events Conditions
12:00 AM 35.6 °F - 30.2 °F 81% 30.01 in - Calm Calm - N/A   Clear
1:00 AM 37.4 °F - 32.0 °F 81% 30.01 in - Calm Calm - N/A   Clear
2:00 AM 32.0 °F - 28.4 °F 87% 30.01 in - Variable 2.3 mph - N/A   Clear
3:00 AM 35.6 °F - 32.0 °F 87% 30.01 in - Calm Calm - N/A   Clear
4:00 AM 33.8 °F - 30.2 °F 87% 30.01 in - Variable 2.3 mph - N/A   Clear
5:00 AM 32.0 °F - 28.4 °F 87% 30.01 in 5.0 mi Calm Calm - N/A   Unknown
5:43 AM 30.2 °F - 26.6 °F 86% 30.04 in 2.8 mi Variable 1.2 mph - N/A   Mist
6:00 AM 32.0 °F - 28.4 °F 87% 30.04 in 2.8 mi Calm Calm - N/A   Mist
7:00 AM 32.0 °F 28.7 °F 30.2 °F 93% 30.04 in 2.5 mi East 3.5 mph - N/A   Mist
8:00 AM 41.0 °F 39.0 °F 35.6 °F 81% 30.06 in 2.5 mi East 3.5 mph - N/A   Mist
8:43 AM 46.4 °F - 35.6 °F 66% 30.06 in 3.1 mi Variable 2.3 mph - N/A   Mist
9:00 AM 44.6 °F - 33.8 °F 66% 30.06 in 3.1 mi Variable 2.3 mph - N/A   Mist
9:33 AM 51.8 °F - 35.6 °F 54% 30.06 in 3.7 mi SE 3.5 mph - N/A   Unknown
10:00 AM 53.6 °F - 35.6 °F 51% 30.06 in - SE 3.5 mph - N/A   Clear
11:00 AM 59.0 °F - 33.8 °F 39% 30.04 in - SSE 4.6 mph - N/A   Clear
12:00 PM 62.6 °F - 33.8 °F 34% 30.04 in - SSE 4.6 mph - N/A   Clear
1:00 PM 64.4 °F - 32.0 °F 30% 30.01 in - South 5.8 mph - N/A   Clear
2:00 PM 66.2 °F - 32.0 °F 28% 29.98 in - South 10.4 mph - N/A   Clear
3:00 PM 66.2 °F - 32.0 °F 28% 29.95 in - South 11.5 mph - N/A   Clear
4:00 PM 66.2 °F - 32.0 °F 28% 29.92 in - South 13.8 mph - N/A   Clear
5:00 PM 64.4 °F - 32.0 °F 30% 29.92 in - SSW 11.5 mph - N/A   Clear
6:00 PM 60.8 °F - 33.8 °F 36% 29.92 in - SE 4.6 mph - N/A   Clear
7:00 PM 55.4 °F - 35.6 °F 47% 29.92 in - SE 4.6 mph - N/A   Clear
8:00 PM 53.6 °F - 35.6 °F 51% 29.92 in - SSE 9.2 mph - N/A   Clear
9:00 PM 55.4 °F - 37.4 °F 51% 29.92 in - South 10.4 mph - N/A   Clear
10:00 PM 53.6 °F - 39.2 °F 58% 29.92 in - South 6.9 mph - N/A   Clear
11:00 PM 48.2 °F - 37.4 °F 66% 29.95 in - ESE 3.5 mph - N/A   Clear